Theta_e
308 308 308 308 307 308 308 308 309 309 309 309 309 309 309 309 309 309 309 309 309 310 310 311 312 312 312 313 313 314 314 315 314 315 316 317 316 317 318 317 316 313 313 313 314 314 315 316 315 314 317 319 318 320 318 320 331 338 333 325 325 329 330 332 327 319 318 319 321 319 316 315 317 318 316 315 317 319 319 318 318 315 315 316 315 314 314 317
309 309 309 309 309 309 309 309 310 310 310 310 310 310 310 310 309 310 310 310 311 312 312 313 314 315 315 315 316 316 316 316 315 316 318 318 318 318 317 315 314 313 313 314 314 314 317 318 314 315 321 320 318 319 320 320 324 333 332 324 330 337 332 330 325 318 317 317 317 318 317 316 316 317 315 315 318 318 317 316 316 316 316 314 313 313 314 317
310 309 310 310 309 309 310 310 311 311 311 311 310 310 310 310 311 311 311 312 313 313 314 314 315 315 315 316 316 317 317 316 316 317 317 318 317 316 316 314 314 313 313 314 315 314 316 317 313 317 321 318 320 322 323 322 321 331 330 325 337 340 330 327 322 319 318 315 317 319 318 317 317 317 315 315 317 316 316 316 315 316 316 315 316 313 315 319
311 310 310 310 310 310 311 311 311 311 311 311 311 312 312 312 312 313 313 314 314 315 314 314 314 313 314 314 315 317 317 316 317 317 316 315 315 315 315 314 314 313 313 314 316 315 315 315 313 318 320 318 323 322 325 326 321 325 324 327 339 332 324 326 324 322 319 315 316 318 318 317 316 316 315 315 317 316 315 316 315 316 314 315 315 312 315 318
313 312 311 311 311 311 312 312 312 312 312 313 313 313 313 313 313 314 314 314 314 314 314 313 313 313 312 312 314 316 318 318 316 316 314 314 314 314 314 314 314 313 313 315 317 315 315 314 313 317 319 318 321 319 325 328 321 322 323 327 333 325 320 324 325 322 317 316 317 317 317 316 316 316 316 316 316 316 315 316 316 316 315 314 313 311 314 318
314 314 313 312 312 312 312 312 312 313 313 313 313 313 314 314 315 314 313 314 314 314 315 316 316 315 313 311 313 316 317 318 315 314 314 314 314 314 314 314 314 313 312 315 316 315 315 314 314 318 319 317 318 317 320 320 318 322 323 324 327 322 320 321 321 319 317 316 316 318 317 315 316 316 316 317 316 316 315 316 315 315 313 311 311 310 314 323
315 314 315 314 313 313 313 313 313 313 313 313 313 314 314 316 316 316 316 316 316 317 319 320 319 318 315 311 315 320 320 319 317 316 316 314 314 315 314 314 314 313 313 314 315 315 317 316 315 319 319 317 317 318 317 315 317 321 323 324 324 321 320 320 318 318 318 316 316 317 315 314 315 315 316 317 316 315 314 314 313 311 309 310 311 312 313 316
315 315 315 315 314 314 313 313 313 313 314 314 315 316 317 318 319 319 319 320 321 321 321 321 319 318 316 313 318 324 322 321 319 318 319 316 315 315 314 314 313 313 314 315 315 315 316 316 316 316 316 317 316 317 316 315 318 321 321 321 319 318 319 319 317 317 318 316 315 314 314 314 314 313 314 315 314 314 314 314 314 311 311 312 314 315 313 311
315 315 314 314 314 314 313 313 314 315 316 317 318 319 320 320 321 321 322 322 322 322 320 319 318 316 315 313 318 322 319 319 319 319 319 317 315 314 314 314 313 313 314 315 315 313 315 317 317 315 317 318 315 316 315 315 318 318 317 316 316 316 316 316 316 316 316 314 313 313 315 314 313 313 314 316 316 315 314 314 314 313 313 314 314 313 310 310
315 314 314 314 314 314 314 314 316 317 318 320 320 320 321 321 322 322 322 322 322 321 319 318 317 316 314 312 316 320 318 319 320 320 320 317 316 313 313 315 314 314 314 315 315 314 315 316 316 315 317 318 314 314 314 314 315 314 314 315 315 315 314 315 315 315 313 313 313 313 315 314 313 314 315 318 319 316 314 315 315 313 314 314 312 310 307 308
315 315 314 313 314 314 315 317 319 320 320 321 321 321 322 322 322 323 323 322 321 320 317 316 315 316 315 314 318 319 318 319 319 320 319 316 314 313 315 316 315 314 314 315 315 315 315 315 314 314 316 315 313 315 315 314 314 313 313 315 317 316 315 315 314 314 312 313 315 314 315 315 313 314 316 317 317 314 314 315 314 313 314 313 310 308 307 308
315 315 315 314 314 315 317 319 320 321 322 321 322 322 322 322 322 322 322 321 320 317 316 315 314 315 315 315 318 319 318 318 317 317 316 315 314 314 316 317 316 314 315 315 314 315 316 315 315 315 316 315 315 315 314 313 314 314 313 314 317 316 315 316 314 313 312 314 316 315 315 318 316 317 318 316 314 313 314 315 313 313 312 309 308 308 309 308
315 315 315 314 314 317 318 320 321 322 322 322 322 322 322 322 322 322 322 319 317 315 314 315 314 315 316 319 319 316 317 318 317 317 316 316 315 315 317 317 317 316 316 316 314 314 314 315 315 316 316 316 317 314 313 314 314 315 313 312 315 316 317 317 314 313 312 313 316 314 316 323 323 319 317 315 312 313 314 314 313 312 309 307 308 309 308 307
316 316 315 314 316 318 320 321 322 322 322 322 322 322 322 322 322 322 320 317 314 313 313 313 313 315 318 321 319 315 316 317 317 317 316 317 315 316 317 317 317 316 316 316 315 314 314 314 314 315 314 315 316 313 315 318 316 314 312 315 316 315 321 322 315 314 315 314 313 313 316 323 323 319 318 314 310 312 315 315 312 310 307 308 309 308 307 306
316 315 315 315 317 319 321 321 322 322 322 322 322 322 322 322 322 321 318 316 314 314 314 312 314 316 317 319 316 314 316 316 317 317 316 316 315 315 315 316 316 315 315 315 315 315 314 314 314 316 315 313 315 317 319 322 323 319 314 323 324 316 321 324 315 316 317 314 312 312 317 320 318 319 320 317 312 312 314 314 311 309 308 309 308 307 306 305
316 315 314 316 318 320 321 322 322 322 322 323 323 323 323 322 322 321 317 314 313 315 316 315 316 316 316 318 314 313 315 315 316 316 316 316 315 315 314 314 314 313 314 313 314 314 313 315 314 315 316 313 316 325 326 324 328 325 316 323 328 318 319 320 317 318 316 314 313 313 317 317 318 320 320 318 315 312 314 314 311 309 309 308 306 306 305 304
316 315 315 316 318 320 322 322 322 323 323 323 323 323 322 322 323 321 317 314 315 316 316 316 316 315 316 316 315 316 315 313 315 316 315 315 316 315 313 313 312 311 312 311 312 313 312 313 313 314 317 316 317 324 326 323 326 328 320 319 324 320 316 318 320 320 316 316 316 315 315 315 317 318 317 315 313 313 315 314 312 310 308 307 305 304 303 303
314 314 315 317 319 321 322 322 322 323 323 323 323 323 323 323 323 320 317 317 317 316 316 316 315 319 321 317 316 317 315 314 315 316 314 315 316 314 313 313 311 311 313 313 313 313 313 316 317 318 318 316 315 318 322 324 325 327 324 320 322 322 318 318 319 320 319 319 319 318 317 317 317 316 315 314 312 314 316 313 311 309 308 306 305 304 303 302
314 314 316 318 320 321 322 322 322 323 323 323 323 324 323 323 321 317 315 318 321 322 323 319 318 323 324 319 316 315 314 315 315 314 313 315 315 314 313 312 313 315 316 317 316 314 317 320 320 320 319 316 315 315 318 322 322 323 323 321 322 322 320 318 318 319 317 317 319 319 318 319 319 318 316 313 312 313 314 312 309 308 307 305 304 303 303 302
314 314 316 318 320 322 322 322 322 323 323 323 323 322 324 327 326 322 319 320 323 324 325 322 319 321 321 319 316 314 314 314 313 314 313 314 315 314 314 312 316 318 318 324 321 314 317 320 320 320 321 319 316 313 313 315 316 316 317 318 319 320 319 317 318 320 316 316 321 319 318 320 320 320 316 313 316 314 311 311 309 307 306 305 304 303 302 302
315 316 317 319 321 322 322 322 322 323 323 323 322 321 324 327 327 325 324 324 321 318 321 321 317 317 318 317 315 314 316 316 314 313 312 313 314 315 316 315 318 319 319 324 320 314 315 319 320 321 319 317 315 314 312 313 313 314 316 317 319 320 319 318 318 319 315 316 323 320 317 321 320 318 315 315 319 314 310 310 307 306 305 304 304 303 302 302
317 319 319 320 321 321 321 322 323 323 323 323 320 318 318 319 319 318 320 326 324 317 319 319 317 318 318 317 316 315 318 321 318 315 313 313 313 316 317 317 319 321 319 318 317 316 316 317 318 316 315 315 316 315 315 315 315 316 318 318 320 321 320 322 321 320 317 316 325 325 318 319 320 315 312 313 313 309 308 308 307 306 305 304 303 302 302 301
319 320 320 320 320 320 321 322 323 323 324 323 319 317 316 315 316 314 315 323 325 319 320 321 320 321 321 319 318 317 319 322 321 320 315 312 315 317 317 317 318 320 318 317 319 319 319 320 317 313 314 315 316 317 317 317 318 320 320 320 322 321 320 325 325 323 320 316 320 322 318 320 321 314 310 309 308 307 306 306 305 305 304 303 303 302 301 300
320 319 319 319 319 321 322 321 322 323 324 323 320 319 318 316 314 314 316 321 323 321 320 319 319 321 322 318 315 317 321 321 322 320 315 313 316 316 316 317 317 319 318 317 319 320 321 322 318 316 317 317 318 320 319 319 322 325 324 322 322 322 321 323 323 322 322 321 320 317 321 329 327 316 312 309 307 307 306 305 305 304 303 302 301 301 300 300
319 319 319 319 320 322 321 321 323 323 323 323 321 319 318 317 314 313 317 322 323 323 319 315 317 318 316 313 314 317 319 319 319 316 313 313 316 317 317 316 316 320 318 316 317 319 319 318 318 319 320 320 321 322 323 324 324 327 328 325 322 323 323 322 321 321 323 327 322 316 323 335 334 323 315 310 309 308 306 305 305 304 303 302 301 301 300 299
319 320 320 321 322 322 321 322 323 323 323 322 321 320 318 318 315 313 319 325 326 326 322 317 317 316 312 312 314 316 320 320 313 312 313 313 314 315 317 318 317 320 320 318 318 320 319 317 318 321 322 323 323 324 327 325 322 324 327 326 324 322 321 322 320 320 326 327 320 317 323 328 329 326 317 310 310 308 306 305 304 303 302 302 301 300 299 299
319 319 321 322 323 323 322 323 323 323 325 324 320 319 318 318 315 313 319 328 331 328 323 318 315 315 312 311 311 316 324 321 312 311 313 312 312 312 316 319 318 318 319 320 322 323 320 318 320 320 321 324 322 324 326 323 325 328 324 325 328 324 322 323 320 320 324 323 320 322 322 320 322 322 315 311 311 309 306 305 304 303 302 301 301 300 299 299
321 320 321 322 323 323 323 323 323 323 324 323 320 320 320 317 315 314 321 331 332 326 320 316 312 312 311 310 311 315 316 315 315 314 310 310 312 312 316 320 320 320 318 319 327 327 319 318 322 322 321 322 325 328 326 322 325 328 321 321 325 324 323 323 320 321 321 318 322 324 318 317 324 322 312 311 314 311 307 305 303 303 302 301 300 300 299 298
323 322 322 322 323 323 323 323 324 323 323 322 321 321 319 315 314 317 326 331 328 321 317 313 310 311 312 311 313 313 310 310 315 313 309 311 311 312 316 317 317 318 314 317 325 324 318 316 321 325 323 324 329 329 325 323 323 321 319 322 326 325 324 322 319 322 322 318 321 323 318 317 325 325 314 311 316 314 308 305 303 303 302 301 301 300 298 298
324 323 324 323 322 321 321 322 323 323 323 321 322 321 317 317 319 323 329 329 324 319 315 312 312 313 313 313 313 312 310 311 313 312 312 313 312 312 313 312 315 318 319 321 322 321 318 314 316 321 322 325 327 321 318 321 319 317 320 326 329 328 327 326 323 322 322 322 323 322 320 316 322 328 321 314 315 313 307 304 303 302 302 301 300 299 298 297
324 323 324 323 321 320 320 321 322 323 322 321 321 319 319 323 325 328 330 325 321 320 315 314 315 312 313 318 317 313 311 312 312 314 315 313 314 315 312 312 316 321 324 324 322 321 318 315 318 322 319 320 321 316 316 318 316 319 325 326 327 328 327 327 326 322 321 326 327 323 318 315 320 326 320 312 310 308 307 305 303 302 302 301 299 298 297 296
323 323 322 321 321 321 321 322 322 322 322 321 319 319 323 326 325 327 328 322 322 323 319 319 317 314 316 319 319 316 314 314 313 314 318 317 317 317 316 319 320 321 324 325 324 323 321 319 320 320 317 316 319 319 318 318 317 320 324 322 323 325 323 322 324 321 322 324 321 318 316 317 321 320 313 309 306 306 306 304 302 302 301 300 299 298 297 296
321 320 320 320 320 320 321 322 321 322 322 320 320 322 325 326 325 326 326 324 324 322 320 321 319 318 319 318 320 319 315 316 314 313 317 318 317 318 319 320 319 318 322 323 323 323 325 324 318 316 317 318 320 321 321 322 319 318 321 322 323 324 323 326 324 317 318 321 317 314 316 319 322 316 308 305 303 303 304 303 301 301 300 299 299 298 297 296
318 318 318 318 319 320 320 321 321 322 321 319 322 326 325 325 324 323 324 325 324 322 320 321 319 318 319 320 324 323 317 318 316 313 316 316 316 320 321 318 316 318 321 321 322 324 326 326 322 319 319 318 317 318 324 329 321 316 320 322 322 326 326 327 326 319 320 324 318 313 316 324 325 313 303 302 301 300 302 301 300 300 299 299 298 297 297 295
315 316 317 317 318 319 319 319 320 320 320 319 323 325 323 324 324 323 325 325 325 323 319 320 321 320 322 324 325 322 318 320 319 316 318 318 319 325 327 322 317 318 322 323 323 323 322 326 326 319 315 316 316 318 324 329 322 316 317 318 320 324 323 321 323 322 321 323 320 318 320 320 315 306 301 302 301 300 301 300 299 300 298 298 298 297 296 296
313 314 315 317 318 318 318 319 319 318 319 320 323 323 322 323 325 325 326 322 322 323 320 322 324 323 325 328 326 321 316 318 320 318 318 319 322 324 326 327 321 315 318 323 324 321 320 324 323 315 313 316 317 317 319 322 322 316 315 320 321 319 320 322 322 318 316 320 320 321 320 313 308 307 302 301 302 300 300 299 299 299 299 298 298 298 297 296
312 311 311 313 316 318 317 318 318 317 319 321 322 323 321 322 323 323 323 319 319 323 323 324 325 324 326 327 326 324 320 319 320 320 322 322 321 322 324 325 319 315 316 319 322 322 319 323 322 316 318 316 311 314 316 315 318 319 319 322 318 315 319 324 324 321 319 320 320 320 320 315 314 313 304 301 304 302 300 300 300 299 300 299 299 298 297 296
309 308 309 310 313 315 316 317 317 317 319 320 320 322 320 320 319 318 319 317 318 323 325 325 325 324 325 325 326 325 322 322 322 323 326 324 321 322 323 320 316 315 316 315 319 322 318 320 321 315 317 317 312 315 318 313 312 318 321 319 316 318 323 322 320 322 322 319 321 323 320 317 317 314 308 305 305 302 301 301 300 300 300 299 299 299 298 297
306 309 313 310 309 313 315 316 316 317 320 319 319 321 319 318 318 317 317 316 318 321 323 325 323 322 323 323 325 324 321 323 324 324 324 322 321 319 318 319 316 316 318 317 318 322 319 319 321 315 313 316 316 317 322 318 312 313 315 315 316 319 322 321 318 321 322 317 319 321 318 320 321 317 313 309 304 301 302 301 301 300 299 299 299 298 298 298
306 311 315 309 307 310 313 315 316 318 320 319 318 318 316 316 317 317 315 314 316 319 320 322 321 320 321 321 321 320 320 324 325 323 322 321 322 320 317 319 318 317 319 318 317 320 318 316 320 320 314 314 317 318 322 324 317 316 317 317 317 316 318 320 316 317 322 320 321 320 316 321 323 314 313 311 303 301 301 300 301 300 300 300 299 298 298 298
307 313 314 307 305 309 313 316 316 318 319 318 317 316 314 314 316 317 316 314 315 316 317 319 320 320 318 318 320 318 317 323 324 322 322 321 321 319 316 316 318 317 317 317 317 318 317 317 322 325 320 319 321 317 317 320 319 321 323 320 320 319 318 319 316 316 318 318 322 321 317 321 318 309 309 308 303 301 301 301 302 301 301 301 300 298 298 297
310 315 311 306 306 310 314 314 313 315 317 316 316 315 314 313 315 316 317 315 314 314 315 316 318 319 318 318 321 319 317 321 322 321 321 320 321 319 314 313 315 316 317 318 316 315 317 320 323 324 321 319 317 312 312 314 314 317 318 316 319 320 319 320 318 317 317 316 317 317 317 319 312 306 307 305 302 302 301 302 303 302 301 301 300 299 298 298
312 312 308 305 307 312 313 310 310 312 313 313 313 313 313 312 313 315 316 316 315 314 315 316 317 317 317 318 319 319 318 319 321 321 321 321 319 316 314 315 315 315 318 318 315 315 317 319 320 321 321 318 314 311 312 313 312 313 315 314 315 317 318 318 316 316 318 317 315 314 315 315 310 307 307 304 302 303 302 303 304 304 302 301 300 299 298 298
310 309 307 306 308 312 311 310 311 311 311 312 312 312 312 312 313 314 314 315 317 316 315 316 317 315 316 317 317 318 319 318 318 318 318 318 315 310 311 314 313 314 316 315 315 317 317 317 318 319 320 318 315 313 314 316 315 314 313 312 311 313 314 312 311 313 314 315 315 314 314 314 309 307 306 305 305 305 304 304 304 306 305 302 300 299 298 297
307 307 307 307 307 310 310 310 311 311 310 311 311 311 311 312 312 313 314 314 316 318 316 316 317 316 316 316 316 317 317 317 317 315 315 316 314 311 311 311 312 313 313 312 313 315 314 315 317 318 317 316 315 314 315 317 315 312 310 309 309 310 310 309 309 311 312 313 313 312 313 312 309 307 307 306 306 306 306 305 302 304 305 302 299 298 297 297
307 307 307 308 307 308 309 309 310 311 311 311 311 311 311 312 311 312 314 314 315 317 317 317 316 316 316 316 316 317 316 315 315 315 316 317 315 313 310 308 310 312 311 311 313 314 314 313 314 316 315 314 314 313 312 313 314 313 311 310 309 308 307 307 308 310 310 311 310 309 311 311 309 308 308 307 307 307 308 307 303 302 303 301 298 297 297 297
306 307 307 308 308 308 309 309 310 310 310 310 311 311 311 311 310 310 312 314 315 315 315 315 314 314 316 316 315 316 316 315 314 314 316 317 314 310 307 306 308 309 309 310 310 313 314 312 312 314 314 312 311 312 310 309 312 313 311 311 310 308 307 307 307 308 309 309 308 308 308 309 309 308 307 308 308 307 307 308 305 303 302 300 297 296 298 297
304 306 305 306 308 309 309 309 310 310 310 309 310 311 312 311 310 310 311 312 314 314 314 314 314 314 316 316 315 315 315 314 314 314 315 314 312 309 307 307 307 307 308 308 308 311 314 312 310 311 313 312 309 309 308 307 308 309 308 309 309 307 306 306 305 306 306 306 306 306 306 306 306 305 305 307 307 306 306 306 304 302 301 299 297 296 297 297
301 302 301 302 305 306 307 309 309 310 310 309 309 311 311 311 310 309 310 312 313 312 313 314 313 313 314 315 315 314 314 314 313 312 313 314 312 310 310 310 307 305 306 307 308 309 311 311 308 308 311 310 306 306 306 305 305 306 305 305 305 304 304 303 303 304 304 304 304 304 304 304 303 302 302 305 306 304 303 302 301 301 301 299 297 296 297 295
300 300 301 302 302 302 305 307 308 309 310 309 309 309 308 309 310 308 309 313 313 312 312 312 313 313 313 315 315 313 313 314 313 312 312 313 311 310 311 311 308 304 305 307 306 305 308 309 306 305 308 307 303 302 303 303 303 302 302 301 300 300 300 300 301 301 301 302 302 302 302 302 301 302 302 303 302 300 299 300 300 301 300 298 296 297 297 296
297 297 299 301 302 302 304 306 307 308 309 309 309 309 308 308 308 307 308 311 311 312 313 312 312 313 311 311 313 313 312 313 314 313 312 311 309 309 310 311 308 305 305 305 305 305 307 307 304 304 308 307 301 299 301 302 301 300 300 299 298 298 298 298 299 299 300 300 299 300 301 300 300 301 300 299 298 298 298 299 298 298 297 296 296 297 297 297
295 295 296 299 302 302 302 304 306 307 307 308 308 307 307 307 307 307 308 309 308 308 309 310 311 311 310 310 310 311 312 311 309 307 305 305 305 305 306 307 306 306 306 304 304 305 306 307 306 305 307 305 301 299 300 301 301 300 299 298 298 298 298 297 297 298 298 298 299 300 300 299 300 300 299 297 296 297 297 296 296 295 294 294 296 296 296 296
Wind_Speed
1 2 2 2 3 3 2 3 3 3 4 4 4 4 4 5 5 5 6 7 7 8 8 8 9 10 11 12 13 15 16 17 17 15 10 9 5 5 5 4 3 2 6 8 9 8 5 2 2 2 2 2 2 1 1 2 2 4 3 3 1 3 3 5 6 4 2 4 6 6 2 3 5 6 3 2 1 4 6 6 6 5 6 9 10 10 9 5
1 2 2 2 3 3 3 3 3 4 4 4 4 5 5 5 6 6 7 7 7 8 8 8 8 9 10 11 13 14 16 17 16 14 9 3 5 7 3 2 2 3 7 9 10 9 6 2 3 3 4 2 2 2 1 1 2 3 3 2 3 5 5 5 6 4 2 4 6 6 3 3 4 4 2 3 6 5 7 9 7 8 10 11 13 12 9 7
2 3 3 3 3 4 4 4 4 4 4 4 5 5 6 6 6 7 7 8 8 8 8 8 9 9 10 10 11 12 15 14 10 7 1 6 9 8 5 2 1 4 7 6 8 8 6 3 5 6 4 2 2 2 2 1 1 2 4 2 6 7 5 5 6 6 5 5 5 7 3 3 5 3 1 4 8 6 5 9 7 10 12 9 9 8 6 9
3 3 3 3 3 4 4 4 4 4 5 5 5 6 6 7 7 8 8 8 9 9 9 8 9 9 9 9 9 10 10 8 3 2 5 8 9 8 6 4 3 6 8 6 5 6 3 1 4 5 4 1 3 3 1 3 1 1 4 5 7 4 3 7 7 6 6 3 3 7 5 6 6 2 1 4 8 9 7 8 8 11 15 10 7 6 7 9
4 4 4 4 3 4 4 4 4 5 5 5 5 6 6 7 7 8 9 9 10 10 10 9 8 8 8 7 7 7 6 5 1 4 6 8 8 7 6 4 4 7 10 7 4 4 3 1 4 4 3 0 2 3 2 4 3 1 3 6 6 4 3 8 6 4 4 3 5 7 6 6 3 1 1 2 6 10 7 7 9 11 13 12 8 6 6 8
6 5 4 4 4 4 4 4 4 4 5 5 6 6 7 8 8 9 10 10 11 11 10 9 8 8 7 5 4 4 2 1 3 4 6 8 7 5 4 2 3 7 11 9 3 2 2 3 4 2 2 0 2 2 4 2 3 2 4 4 5 5 5 6 3 3 3 3 6 5 4 3 4 5 4 6 10 12 10 9 8 9 13 15 9 5 6 7
9 8 6 5 5 4 4 4 4 4 5 5 6 6 7 8 9 10 10 11 11 10 10 9 8 7 6 3 2 2 2 4 5 4 6 7 6 4 2 2 3 7 11 9 4 3 3 4 2 4 4 1 2 4 4 2 2 4 5 5 5 5 6 6 4 6 5 6 8 4 4 5 6 6 1 7 13 13 14 10 7 10 14 15 10 6 7 8
10 10 7 6 6 5 4 4 4 4 5 5 6 7 7 8 9 10 10 11 11 10 10 9 7 6 4 1 2 3 2 6 5 5 8 7 7 4 3 3 4 7 10 8 4 4 4 4 4 3 3 2 3 3 3 3 0 4 5 5 4 3 5 7 6 8 9 8 6 4 8 9 8 4 2 11 17 15 13 9 6 6 9 10 9 9 7 6
10 9 7 6 6 5 4 4 3 4 4 5 6 6 7 8 9 10 10 10 10 10 9 8 7 4 2 2 4 2 4 5 4 6 6 7 7 5 4 4 6 8 8 5 3 4 3 3 4 3 4 3 3 2 2 3 1 4 5 3 3 5 6 7 7 9 9 5 2 3 12 12 6 3 4 12 16 14 9 7 7 5 7 8 7 8 8 8
10 9 8 7 6 4 3 2 2 3 4 5 6 6 7 8 8 9 10 10 10 9 8 6 5 2 3 2 5 1 5 4 4 5 6 7 6 5 5 5 6 9 7 3 3 4 3 4 3 4 5 2 2 2 1 3 3 4 3 4 5 6 7 5 7 11 8 5 4 5 13 12 4 1 4 10 12 9 7 7 8 6 7 7 6 7 9 10
11 8 9 7 4 3 2 2 2 2 3 4 5 6 7 8 8 9 10 10 10 9 7 4 3 3 4 4 5 3 5 4 5 3 4 5 4 5 5 4 5 8 6 4 3 4 3 5 5 5 2 1 1 2 2 3 2 2 1 7 8 6 8 7 9 10 4 5 5 8 8 9 2 2 7 12 10 6 7 9 8 7 7 7 7 8 9 9
11 8 8 5 3 2 1 2 2 2 4 4 5 7 8 9 9 10 10 10 10 9 7 4 3 5 4 3 4 8 7 6 5 1 3 4 5 5 4 4 4 6 6 4 4 4 4 4 6 4 2 2 1 2 3 3 1 2 3 5 10 7 8 11 9 5 2 3 4 8 2 8 2 6 11 13 8 6 8 10 7 6 6 7 8 8 8 10
9 8 6 4 3 2 2 2 2 3 4 5 7 8 9 10 11 11 11 9 9 8 6 3 3 7 4 1 5 10 10 8 5 2 3 4 4 4 4 4 4 3 5 5 5 6 5 3 5 4 3 4 1 2 0 1 2 4 2 1 6 6 6 10 4 0 1 2 5 7 1 6 7 10 12 11 7 7 9 9 6 7 7 7 7 7 8 11
8 7 5 4 3 3 2 2 2 3 5 6 8 9 10 11 11 11 10 8 7 6 5 1 4 6 3 3 4 5 8 9 7 6 5 4 4 5 6 5 4 3 2 4 5 5 5 2 5 4 1 2 1 2 3 5 3 2 2 0 2 2 5 9 4 1 4 2 5 6 2 6 9 11 12 9 4 4 8 8 6 7 6 7 7 7 8 10
8 6 5 5 4 3 3 2 3 4 6 7 8 10 11 11 12 11 8 6 5 4 3 2 4 4 1 5 5 3 6 7 8 9 7 6 6 6 5 5 4 3 2 3 4 3 2 2 3 3 1 1 2 3 3 4 3 1 1 3 2 3 5 11 8 3 2 3 3 5 2 5 8 11 13 9 4 3 7 9 7 7 7 7 6 7 7 7
7 6 6 6 5 4 4 3 2 4 6 8 9 10 11 12 12 9 5 3 2 3 4 2 2 2 1 3 1 1 5 6 8 9 8 8 7 6 6 6 5 5 4 4 4 4 3 3 1 1 1 1 3 5 3 4 4 2 1 4 3 3 2 7 7 1 3 1 3 2 2 4 6 9 11 9 7 7 7 9 7 8 7 7 6 6 6 7
6 6 7 6 6 6 4 2 2 4 7 9 10 10 11 12 11 7 4 2 0 2 2 1 1 1 2 2 1 2 4 6 7 9 8 7 7 7 8 6 5 6 6 5 4 3 2 3 1 0 2 2 3 5 3 2 4 3 1 3 4 4 3 3 5 4 3 3 1 2 3 6 9 9 12 11 9 8 8 7 6 8 7 7 6 7 7 8
7 7 7 7 7 6 4 2 3 5 7 9 10 11 11 10 7 4 4 3 1 2 2 1 2 1 3 2 2 3 2 5 7 9 8 7 8 8 6 4 5 6 5 4 2 2 2 3 2 0 2 2 2 4 3 5 5 4 3 3 4 3 4 5 4 4 5 5 4 4 4 8 11 9 11 10 5 6 7 4 7 7 7 7 7 7 7 8
8 8 8 7 7 6 4 2 3 5 8 9 10 9 7 4 2 1 2 2 1 1 1 2 3 2 3 3 2 1 3 6 6 7 8 8 9 7 5 5 6 5 3 1 1 0 2 3 3 1 1 3 6 8 10 9 7 6 5 4 4 5 6 6 5 5 2 4 6 6 5 8 9 10 10 6 1 2 3 6 7 6 7 7 7 7 7 9
9 9 8 8 7 6 4 1 3 6 8 9 8 6 2 2 2 1 1 1 4 5 2 4 7 3 4 2 3 5 5 5 3 4 8 8 8 7 4 4 5 4 2 3 2 1 3 3 2 5 8 11 12 11 10 6 1 2 2 2 5 6 6 6 5 6 0 1 7 4 3 6 8 11 11 6 5 5 5 9 7 6 7 6 7 7 8 8
9 9 8 7 6 5 3 2 4 5 7 8 6 3 1 2 1 1 2 3 8 11 8 8 10 9 8 3 7 8 5 1 1 2 8 8 7 7 0 2 4 1 2 4 2 1 3 4 8 12 12 9 6 6 5 4 2 2 4 4 6 5 7 7 5 6 1 2 5 2 3 7 9 10 10 6 8 8 6 8 7 7 7 6 7 7 7 6
10 10 9 8 6 4 3 3 4 5 5 4 2 2 3 3 2 2 1 2 8 9 10 10 7 9 11 7 8 7 2 2 3 1 7 7 5 5 2 3 4 3 2 4 3 1 1 5 13 12 5 1 0 4 5 5 5 4 3 2 5 4 4 7 5 4 3 1 4 4 4 7 10 6 7 8 7 6 6 8 7 6 7 6 6 6 6 6
11 11 9 8 5 3 3 4 5 6 4 2 1 4 5 3 4 3 3 0 6 5 5 6 4 6 7 7 10 9 5 6 4 4 9 9 3 4 4 5 5 3 3 5 5 4 3 7 12 7 5 2 3 3 5 4 3 4 4 3 5 4 1 4 5 4 3 1 3 3 4 6 7 1 8 7 6 8 9 10 9 7 7 7 6 6 6 7
12 11 10 8 4 2 4 6 8 6 3 2 2 4 5 4 4 4 2 1 4 5 3 4 4 4 3 2 6 9 4 4 3 4 10 11 4 3 4 5 6 3 4 7 8 6 8 8 3 3 6 6 5 3 4 4 3 4 6 6 6 5 5 6 3 4 4 4 2 3 5 5 5 1 5 5 5 8 8 9 9 7 7 7 7 7 7 7
13 12 9 7 4 4 4 6 8 5 4 3 3 4 5 3 4 5 2 2 3 5 2 2 1 2 2 2 4 6 2 1 1 2 8 10 5 3 2 3 4 5 5 7 6 6 11 7 2 3 3 5 5 5 4 6 4 4 5 9 10 8 7 5 2 4 4 4 3 4 4 5 5 1 4 4 5 7 6 7 7 6 6 6 7 7 6 6
15 13 11 9 8 6 3 4 6 6 4 3 5 6 5 4 4 5 2 4 2 4 1 2 1 2 3 1 1 3 3 1 2 1 5 6 3 3 2 1 1 4 6 5 3 3 6 3 4 5 5 5 5 5 5 7 5 3 5 7 8 6 4 4 1 2 1 4 3 4 1 5 6 3 4 5 5 6 5 6 6 5 5 5 5 5 4 5
17 16 15 14 12 10 5 2 5 6 2 4 8 7 5 4 5 5 1 4 3 3 3 1 0 3 3 0 0 4 2 2 1 3 2 3 1 2 2 2 1 2 3 4 1 3 2 2 3 6 5 5 5 5 6 7 7 3 4 4 5 5 4 4 4 2 3 2 5 2 2 4 6 4 4 7 7 5 4 5 5 4 4 5 4 4 4 5
19 18 17 17 16 16 12 4 4 6 3 5 10 8 5 5 5 4 2 1 3 1 2 1 1 2 1 1 3 3 2 1 3 1 1 3 1 3 1 4 4 4 2 5 3 5 1 2 4 6 4 4 5 5 6 8 5 6 5 5 6 6 6 4 5 2 1 2 5 3 2 2 6 4 2 6 5 4 4 4 4 3 3 4 4 4 5 4
22 21 21 21 19 20 19 12 8 6 6 9 9 7 7 7 5 2 2 2 1 1 1 0 2 1 1 3 3 2 0 2 2 2 2 3 1 3 2 5 5 3 3 3 5 5 1 3 6 7 5 6 5 4 6 8 4 4 4 5 5 5 4 4 5 3 2 2 5 6 5 3 5 4 2 3 3 4 5 4 4 3 3 3 3 4 4 4
24 23 24 23 19 19 19 18 16 11 9 10 7 7 9 6 3 2 3 3 1 0 1 1 2 1 3 4 2 1 1 1 0 1 3 2 2 4 1 2 4 2 2 3 3 5 2 1 3 4 4 5 4 2 2 4 4 4 5 6 6 5 5 4 2 4 2 4 7 8 10 7 4 5 4 4 3 5 8 5 5 4 3 3 3 4 4 4
25 24 24 23 20 19 15 13 20 19 12 10 7 7 7 3 2 3 5 2 2 1 1 1 1 2 5 5 2 1 2 1 0 2 2 1 2 4 2 0 3 3 3 4 4 5 5 2 2 2 2 4 5 3 3 3 4 5 5 4 3 4 4 4 4 4 1 6 7 5 7 6 4 5 3 3 4 3 10 10 10 8 6 4 4 3 3 3
24 23 23 22 21 21 16 10 19 23 15 11 8 4 3 1 1 3 2 0 1 2 3 2 2 3 5 4 3 4 3 2 2 3 3 3 2 2 2 3 3 1 2 4 3 4 4 4 4 5 2 4 5 3 3 5 5 5 4 5 3 3 3 2 3 0 3 7 5 2 5 3 5 5 2 3 6 2 5 9 11 10 8 5 4 4 3 3
23 21 21 22 20 22 21 13 15 21 18 13 7 2 3 2 4 4 3 2 1 1 1 2 2 3 5 3 2 3 2 2 4 3 2 3 2 3 4 3 4 1 2 4 2 2 3 5 2 2 4 3 7 4 2 1 1 4 5 5 4 2 1 3 4 2 4 5 3 2 4 2 4 2 2 3 5 3 5 8 7 8 8 6 5 4 3 3
20 19 19 21 22 22 20 14 15 19 19 13 6 3 3 3 4 4 5 4 0 1 1 2 3 3 3 2 3 3 2 2 4 5 2 3 2 3 4 4 4 2 1 2 1 3 3 6 2 5 3 3 8 6 5 5 3 4 5 5 5 4 4 4 4 3 4 4 3 2 2 2 3 1 3 2 4 3 5 6 5 6 5 4 4 4 3 3
17 18 18 19 20 17 16 15 15 19 19 11 4 3 5 4 2 3 4 3 1 0 0 1 4 3 0 1 3 2 3 2 2 5 3 3 3 4 3 4 6 5 3 2 2 2 3 6 6 3 1 5 6 4 5 6 1 2 3 5 2 4 5 3 3 5 3 3 3 2 3 3 3 1 2 3 4 5 5 5 6 5 4 4 4 4 4 3
15 15 15 16 16 13 13 14 16 19 16 8 4 6 5 3 3 3 3 2 2 2 2 1 3 2 2 2 2 2 1 1 2 3 2 3 4 5 4 4 7 9 7 4 3 2 2 5 5 2 1 3 5 3 3 3 2 1 3 3 4 4 5 2 3 0 2 2 4 2 2 2 1 0 1 4 4 3 3 4 6 5 5 5 4 4 4 3
13 9 8 10 13 13 12 13 16 16 9 4 6 7 3 2 4 3 2 1 1 3 3 1 1 3 3 2 2 2 1 1 2 2 2 2 3 4 5 3 3 10 10 4 3 4 2 4 5 1 2 3 2 2 2 2 3 5 2 5 3 1 4 3 1 2 2 3 4 1 3 3 1 2 0 2 3 5 5 4 5 5 5 5 5 4 4 4
10 5 1 4 9 12 11 12 14 11 4 3 7 6 3 3 3 3 2 2 2 3 3 2 3 2 3 3 2 2 2 2 2 3 2 2 3 4 5 3 0 4 6 2 1 2 1 3 6 1 4 2 3 3 2 3 2 4 4 3 3 1 1 1 2 2 2 4 4 4 5 3 4 4 4 6 10 9 7 6 6 7 7 6 6 5 5 5
8 4 2 3 7 10 10 10 10 6 3 5 8 5 3 3 3 3 2 3 3 2 2 2 2 1 2 4 3 2 2 3 3 3 2 3 4 1 3 2 1 1 1 4 4 2 1 2 5 2 1 1 4 3 2 3 2 2 0 1 1 3 4 2 2 3 3 4 4 5 6 4 5 5 8 12 13 12 11 9 8 9 8 7 6 6 6 5
7 3 1 3 7 10 10 7 4 3 4 5 5 4 3 2 3 3 2 3 3 2 2 4 4 3 4 3 4 3 2 4 4 3 2 3 3 2 1 1 2 1 3 3 3 0 1 2 4 3 3 0 1 2 5 5 2 1 1 2 1 1 1 1 1 2 3 3 3 4 5 5 4 3 7 11 11 12 13 11 9 8 8 8 7 7 6 6
4 3 1 3 8 12 10 4 1 2 2 2 2 2 2 1 1 3 4 5 4 2 3 4 5 5 5 4 4 4 3 3 4 4 3 3 3 3 1 3 1 3 2 3 2 1 1 2 3 2 2 2 4 3 4 6 5 4 3 3 3 2 1 2 4 1 2 3 4 4 5 6 4 2 4 6 8 11 12 11 9 9 9 8 7 7 7 6
3 2 1 5 13 14 8 1 2 1 2 2 2 1 1 2 2 3 4 4 4 3 2 3 5 6 5 4 4 4 4 3 4 4 4 4 5 4 0 3 1 3 3 2 2 2 2 3 1 3 3 5 4 2 1 4 5 5 2 2 3 3 4 3 5 3 1 1 2 2 3 4 2 2 1 5 8 10 11 10 10 9 8 8 7 7 6 6
2 2 1 9 16 12 5 2 3 3 4 2 2 4 3 2 3 3 4 3 3 3 2 3 4 5 5 5 4 4 4 4 5 5 4 4 4 3 1 4 2 2 4 2 2 0 2 3 1 3 4 3 3 4 4 3 4 3 1 1 2 2 3 4 4 2 1 2 1 0 3 3 2 4 2 5 6 8 8 8 8 7 6 7 7 7 6 6
3 2 1 9 15 9 4 4 4 5 6 3 4 6 3 2 4 5 5 5 4 4 4 4 4 5 6 4 4 5 6 4 5 5 4 3 2 0 3 4 2 1 2 2 3 1 1 1 2 1 3 5 4 4 5 5 2 1 1 1 1 3 4 2 1 2 1 3 5 4 5 4 2 4 4 5 6 6 6 6 5 5 5 6 6 6 6 6
3 2 2 5 9 5 2 3 3 4 7 6 6 7 4 3 4 5 7 6 4 5 4 4 4 4 4 3 3 5 6 5 4 2 1 2 1 2 4 5 2 3 2 1 1 1 2 3 3 3 5 8 7 4 3 2 1 1 1 1 0 3 4 2 1 1 2 3 4 4 5 4 3 3 3 3 5 6 6 5 4 4 5 6 5 5 6 5
3 1 1 2 3 3 2 1 2 2 4 5 5 6 8 7 4 2 6 6 5 5 4 3 3 3 3 5 4 5 6 4 3 2 2 2 2 3 2 4 2 2 1 3 3 3 2 2 2 5 8 8 6 6 5 3 2 2 2 3 4 4 4 4 2 3 2 1 3 6 5 4 6 5 3 4 5 6 6 5 5 5 5 5 5 5 6 6
2 2 3 4 2 4 3 2 3 3 2 4 4 3 8 11 6 1 5 6 5 6 4 2 3 5 6 6 5 5 5 4 3 3 3 3 2 3 2 2 3 3 3 3 3 3 4 2 4 5 6 5 3 5 3 3 3 5 4 6 8 6 5 6 5 4 2 1 5 9 6 4 9 9 6 7 7 6 6 7 6 6 6 5 5 5 6 6
1 1 2 2 1 4 6 6 8 7 5 5 2 1 4 9 8 5 5 3 3 6 5 3 5 9 8 8 6 5 4 3 4 4 3 3 2 0 2 2 1 3 4 2 1 3 4 3 3 3 4 4 3 4 4 2 2 4 5 8 10 9 7 6 6 7 7 6 8 10 7 7 11 11 6 7 8 7 8 8 6 5 5 5 6 7 7 7
2 1 1 1 1 2 6 7 9 10 11 7 3 4 5 6 8 7 2 2 2 6 7 7 8 9 8 9 8 6 6 6 5 4 4 3 2 3 1 2 2 2 4 2 1 2 3 2 1 2 3 4 1 2 4 3 2 3 7 10 10 11 9 6 8 11 10 9 11 12 11 13 13 10 7 6 8 7 6 5 4 4 5 7 8 9 8 8
2 1 1 1 1 1 2 4 6 8 10 8 7 8 6 5 8 5 1 4 5 4 6 10 10 7 8 10 10 10 10 8 6 6 6 4 3 3 3 3 2 2 2 1 0 1 0 1 1 2 0 4 2 1 2 2 2 4 8 11 10 9 8 8 10 9 6 9 12 11 11 14 11 5 4 4 3 4 3 4 5 5 6 8 9 8 7 7
2 1 2 3 2 2 2 2 5 6 7 7 9 9 7 9 9 5 2 4 6 4 6 11 10 6 4 8 11 12 9 8 8 8 7 6 5 3 2 3 5 5 3 3 2 0 1 1 1 4 2 4 3 2 0 2 3 6 12 15 14 11 9 9 8 7 9 10 10 7 7 11 9 3 2 3 2 4 6 6 5 5 6 8 8 7 7 7
3 1 2 3 1 3 3 3 4 6 6 7 10 11 9 9 7 7 4 3 2 3 4 7 8 5 4 8 11 11 8 7 7 5 5 4 3 4 2 2 5 6 5 5 2 1 3 3 1 3 2 4 2 4 1 4 5 8 11 10 11 10 8 8 8 10 10 7 6 7 8 9 8 5 4 4 4 6 6 6 5 5 6 7 7 7 7 7
Wind_Direction
290 295 291 295 295 300 309 310 311 306 307 311 315 314 316 322 322 327 326 325 328 326 329 330 331 328 324 325 324 326 326 322 320 314 297 294 275 206 230 264 283 230 179 173 169 163 145 146 173 140 104 63 16 3 359 357 72 55 81 111 200 198 204 194 192 193 169 262 273 309 303 176 290 303 306 322 315 293 302 293 275 285 271 248 254 277 303 285
289 291 290 296 296 304 309 307 306 302 308 310 309 310 313 317 318 323 321 320 321 318 324 325 326 322 321 323 323 327 324 320 316 306 295 272 161 159 177 192 254 212 182 180 185 173 141 176 199 118 63 45 337 5 8 321 91 94 117 140 222 201 214 202 196 208 182 242 268 292 259 210 275 278 328 315 288 313 318 293 290 295 280 272 274 278 284 244
311 302 301 306 309 310 310 310 308 307 315 312 309 316 318 318 319 322 319 317 315 316 321 322 321 317 316 316 320 326 322 323 317 299 280 139 143 139 140 150 213 197 192 191 196 187 154 174 172 131 62 33 295 30 53 322 164 165 125 162 239 215 233 248 234 236 224 230 276 290 271 267 267 241 320 318 298 297 277 277 288 291 285 279 273 273 259 219
309 304 306 310 309 311 315 316 313 315 322 321 320 326 326 321 321 319 318 316 314 316 319 322 319 313 312 312 318 320 324 342 314 220 141 141 140 135 140 152 176 187 196 192 190 202 210 211 158 128 78 7 310 30 137 248 217 183 141 188 233 197 221 261 251 247 244 230 283 291 309 303 276 215 293 333 317 297 264 251 246 265 280 286 275 258 233 212
315 305 301 300 298 306 313 312 315 323 325 328 330 331 331 324 322 320 318 317 315 318 324 325 319 314 315 312 313 314 343 26 251 195 158 155 142 145 152 149 173 191 195 191 189 203 223 126 102 75 68 170 325 41 242 237 148 169 216 214 225 167 205 261 251 255 286 327 311 298 299 289 294 39 232 249 281 277 271 248 236 248 268 281 283 258 228 216
324 312 303 301 297 295 305 311 316 324 326 332 332 330 331 327 327 324 320 319 319 324 330 331 325 323 322 311 303 313 32 46 240 191 180 172 159 166 162 165 196 201 199 200 211 186 169 78 79 94 79 27 208 187 252 266 139 222 274 259 246 216 229 270 279 297 317 310 284 276 281 304 336 308 233 222 246 256 266 257 247 259 271 283 292 265 239 233
323 315 309 305 301 295 301 310 312 321 327 331 331 330 330 330 331 326 324 323 324 331 333 333 329 325 328 304 280 13 83 249 254 216 213 195 191 201 187 237 221 205 198 196 198 157 121 80 113 156 107 7 215 209 254 314 169 211 266 288 274 240 235 264 293 294 285 260 255 265 317 315 292 291 251 248 260 262 268 267 258 265 278 292 300 278 259 255
316 311 305 299 297 295 298 305 312 321 327 331 334 334 333 332 331 327 327 326 327 332 332 331 329 325 329 216 165 19 328 251 251 239 239 221 220 232 238 242 215 205 191 189 183 144 128 128 181 165 120 235 191 207 282 354 341 202 233 276 293 273 253 271 281 274 271 264 261 295 299 275 255 274 293 265 270 271 273 285 284 277 291 298 301 298 302 307
305 304 296 285 281 280 287 302 311 319 328 335 336 335 334 332 329 327 327 325 328 330 332 332 324 312 271 149 102 40 269 247 258 257 245 226 226 236 238 224 203 200 183 187 177 137 150 176 203 183 173 212 181 217 327 27 279 215 214 249 280 286 280 283 281 273 275 265 215 291 286 278 267 265 265 258 258 268 291 311 304 318 310 298 305 319 351 7
295 297 288 277 271 273 285 300 312 322 331 334 334 333 329 327 325 324 324 324 326 327 331 330 316 276 204 143 96 150 259 273 288 267 239 228 225 220 217 200 192 196 177 157 163 153 170 194 193 153 157 160 174 226 87 135 222 227 244 286 279 284 286 270 267 276 290 281 216 228 270 281 294 234 267 264 251 269 322 310 302 327 309 309 341 2 30 36
283 284 281 277 271 275 292 308 313 323 331 333 331 328 323 322 321 319 322 321 323 327 328 323 293 240 189 142 128 201 259 281 289 269 215 218 199 191 192 179 181 194 183 128 136 161 169 194 162 122 153 160 177 280 278 202 227 247 319 318 300 313 306 276 266 272 291 289 211 175 253 292 337 191 243 256 258 300 327 296 305 334 321 347 28 42 45 38
272 265 269 272 263 256 268 289 305 320 330 338 331 330 327 323 321 319 321 322 325 328 324 319 252 207 165 125 191 228 252 263 273 257 170 162 157 179 177 173 181 195 197 141 115 128 132 181 141 122 222 166 138 312 272 228 288 308 29 337 302 341 322 281 274 259 193 250 178 140 287 312 280 224 242 255 276 330 319 295 318 0 3 30 55 57 47 33
264 253 257 253 234 233 240 260 293 314 328 338 334 334 329 323 323 321 321 324 329 331 328 322 223 190 162 251 231 235 247 247 251 239 181 155 153 189 184 185 191 195 199 152 125 109 101 156 137 137 178 129 212 260 106 2 356 305 360 17 301 348 316 280 280 39 235 233 164 142 274 290 259 251 257 269 298 325 306 299 345 34 46 57 64 58 48 36
256 245 245 239 227 228 240 261 295 318 331 333 331 330 325 321 320 320 322 326 335 340 339 328 198 176 162 255 252 248 243 233 234 231 217 200 183 190 187 191 198 196 191 149 135 104 85 113 115 111 152 132 235 289 8 358 1 306 312 351 313 313 280 291 299 337 324 291 148 145 212 259 271 278 277 281 293 307 302 309 3 46 68 70 63 59 52 40
252 240 238 242 237 233 247 272 301 326 330 326 323 322 320 315 315 320 321 324 350 8 23 89 169 151 70 276 267 259 230 220 225 226 220 200 182 183 182 181 179 165 153 142 132 114 108 111 98 103 257 288 52 40 4 343 351 18 276 293 316 202 261 306 299 205 219 287 97 124 211 266 275 278 282 292 312 336 320 318 3 56 75 70 62 57 53 40
247 242 240 242 240 242 251 268 308 326 325 321 316 314 313 309 311 314 305 311 16 31 49 82 154 121 345 276 249 215 212 212 217 213 200 187 186 178 157 149 141 132 130 133 134 132 111 75 63 141 160 324 86 79 37 357 335 338 203 247 267 214 250 313 304 227 163 280 42 137 217 284 279 275 285 297 315 340 333 323 12 69 74 66 63 54 51 38
237 239 241 238 241 246 250 263 314 322 320 318 313 308 306 305 303 293 269 251 59 33 57 92 109 68 281 238 224 256 210 205 202 189 182 185 188 167 141 125 112 115 104 96 115 108 58 49 24 274 45 55 114 99 59 325 291 304 280 226 246 229 224 279 296 323 32 62 354 255 219 254 267 278 288 297 318 335 324 330 38 85 78 68 66 55 51 40
229 232 230 230 240 244 245 273 325 322 319 318 319 312 303 302 296 270 233 215 113 48 38 31 86 58 269 228 209 237 188 185 182 177 181 175 170 156 126 115 115 105 78 49 60 64 21 21 52 10 13 38 132 121 165 229 223 233 242 232 266 262 241 254 267 299 356 15 314 295 275 264 274 280 284 299 326 317 313 16 79 92 79 71 63 57 54 46
231 231 227 228 240 245 246 291 338 330 322 317 321 317 307 317 331 158 173 170 129 114 212 217 165 159 255 245 209 185 136 150 159 172 173 158 160 150 102 101 104 94 91 41 321 22 89 48 58 119 228 213 199 184 197 214 198 202 220 209 245 270 263 257 250 260 337 347 296 279 266 271 287 290 291 310 59 306 341 74 88 83 77 71 64 60 54 52
231 227 227 231 240 248 249 302 344 339 329 320 325 331 328 22 19 350 285 178 207 221 221 202 198 224 281 269 159 152 136 139 150 164 163 158 157 142 90 65 60 55 130 166 218 254 118 124 178 205 215 215 213 207 208 223 168 172 222 235 246 256 270 265 258 274 358 296 275 259 248 273 285 291 299 330 45 34 54 92 88 77 77 67 69 64 56 56
227 225 226 230 240 248 253 314 341 336 330 321 327 342 165 157 128 279 289 273 246 239 246 232 212 236 256 208 157 157 133 131 278 149 161 165 148 147 153 51 80 40 210 159 142 43 101 167 222 221 218 219 211 196 205 246 276 239 238 262 269 248 258 262 253 284 338 159 267 314 349 295 286 293 315 2 42 29 54 97 92 87 85 71 72 65 61 61
221 221 218 221 228 242 281 324 326 321 322 315 328 110 146 157 151 161 139 296 275 244 237 244 225 241 252 239 218 195 153 250 266 223 173 158 142 175 193 108 146 202 180 125 102 81 129 222 239 231 215 284 13 156 176 216 221 220 207 226 260 238 264 282 278 307 351 150 273 333 350 290 283 304 5 33 62 49 45 73 76 83 84 72 70 65 63 62
217 214 212 216 219 245 308 311 301 308 303 263 152 139 146 147 145 143 124 142 290 261 221 232 213 231 252 255 230 203 209 228 225 236 184 158 150 191 158 152 186 177 146 169 161 154 187 243 249 228 151 172 247 196 166 198 229 210 186 187 249 241 206 277 292 319 335 309 275 321 320 283 277 348 57 42 70 76 60 64 61 61 73 69 65 60 56 60
216 208 208 210 212 260 301 298 293 292 255 202 158 157 151 148 155 156 125 88 286 277 232 214 196 204 224 231 191 178 203 213 182 223 183 164 149 156 168 175 180 177 193 195 174 180 222 237 244 127 141 174 227 245 170 178 249 237 207 204 237 249 217 220 279 326 334 343 10 9 331 296 276 219 90 63 64 72 62 65 62 52 60 64 64 58 50 52
213 208 210 209 222 265 290 294 281 239 206 198 184 183 156 146 167 165 135 43 299 289 269 204 181 191 190 129 163 169 169 190 212 221 177 171 151 132 199 169 162 209 206 180 167 213 241 235 122 99 145 165 198 246 200 175 220 271 232 212 220 236 232 229 317 14 8 331 338 34 352 293 302 319 143 129 70 61 51 54 59 48 45 51 57 53 46 50
213 209 215 223 233 248 272 282 243 192 200 217 190 190 174 159 173 177 132 48 298 273 217 176 173 174 173 97 148 136 109 251 275 99 151 173 162 121 182 175 163 212 182 158 161 227 256 236 174 203 210 187 205 255 228 176 162 269 249 208 207 211 222 232 174 83 138 255 296 50 88 270 309 314 189 148 90 72 62 54 55 46 43 49 54 52 44 44
219 214 216 223 227 224 219 244 211 187 207 210 185 187 186 167 168 182 124 28 287 231 135 193 219 145 169 212 30 123 153 249 85 70 114 152 173 83 129 226 227 202 169 119 155 237 225 100 166 203 207 206 223 257 228 165 133 237 249 144 136 147 171 188 135 138 217 254 317 9 140 255 292 280 197 139 108 86 73 66 65 58 57 58 54 52 47 40
228 227 223 220 223 224 220 218 204 201 206 175 174 180 169 161 170 160 97 10 276 165 113 254 111 108 144 46 52 110 204 278 106 253 357 100 125 68 95 227 184 201 203 124 200 258 157 133 193 173 159 195 216 231 193 149 139 243 222 119 111 134 151 135 106 117 296 360 306 277 145 243 270 274 182 138 134 136 135 123 106 94 89 81 65 51 41 40
232 233 234 232 231 232 228 223 217 213 202 171 165 169 151 155 168 104 89 201 268 83 92 67 125 95 33 56 34 68 22 1 121 245 360 79 66 73 158 214 158 203 269 137 210 265 22 207 200 149 152 204 214 224 176 156 180 225 151 90 59 68 81 80 100 107 33 342 252 214 171 210 267 281 202 168 199 183 162 148 146 145 125 100 78 64 43 36
233 232 237 235 228 222 219 222 223 216 198 180 162 156 151 146 137 116 197 208 58 101 146 102 160 129 86 90 17 12 121 338 54 10 26 60 11 35 115 189 99 115 311 5 260 261 312 276 191 149 180 194 164 117 145 160 159 126 89 52 26 21 33 42 65 79 54 284 252 210 188 188 261 286 204 194 243 178 155 150 168 168 143 121 89 73 54 38
236 233 233 228 217 210 203 215 220 210 197 183 160 153 153 108 78 173 207 195 72 156 155 125 172 131 125 134 149 176 156 215 121 85 87 88 25 30 38 70 69 60 346 328 299 299 327 319 248 259 203 135 108 86 21 16 77 96 81 69 36 341 7 19 360 45 124 253 264 225 181 170 225 261 227 260 309 179 161 163 169 166 161 151 117 86 64 47
232 232 228 222 217 209 202 217 215 201 192 179 163 152 139 94 205 196 223 334 100 195 175 170 193 178 168 153 161 179 166 183 177 145 146 141 148 179 193 186 165 69 320 261 271 331 312 242 264 308 280 137 114 94 360 6 45 85 99 102 94 309 344 349 297 261 219 250 266 183 143 166 237 245 256 310 332 329 153 152 159 159 159 157 135 116 84 57
222 223 220 215 212 205 205 215 203 191 183 168 158 100 97 177 219 192 200 217 173 193 139 122 155 162 144 131 197 192 158 189 183 163 149 124 150 233 257 220 169 145 260 221 233 334 299 289 304 315 288 176 142 153 216 281 118 137 144 139 143 174 206 256 257 262 264 266 276 167 148 242 266 292 340 327 331 340 116 128 149 149 147 153 144 134 110 77
208 209 208 206 203 202 204 199 182 181 176 157 132 76 121 207 222 176 202 224 229 316 353 85 113 111 109 144 222 189 151 217 169 148 144 110 123 253 265 242 194 155 141 171 196 184 236 297 234 187 252 179 169 185 170 145 155 177 159 140 153 164 172 218 228 216 252 280 295 258 182 202 216 287 327 342 360 23 95 114 120 113 123 136 130 129 122 95
191 191 194 196 195 195 195 185 174 175 171 150 112 148 182 208 195 169 212 219 209 256 295 66 96 93 23 271 258 203 176 236 144 129 152 153 173 204 212 214 192 163 136 166 234 186 202 263 253 232 258 157 177 203 133 113 117 228 131 113 172 187 171 212 217 179 189 286 290 243 218 203 177 219 341 45 45 48 76 98 107 112 126 133 137 150 141 119
175 177 182 185 185 183 180 178 172 170 166 143 144 193 205 205 173 182 205 171 159 149 138 39 72 102 263 293 288 257 173 213 150 136 187 191 198 205 205 219 191 178 176 176 210 202 200 263 281 341 346 182 187 193 136 133 194 173 121 174 217 177 133 138 271 172 106 244 261 219 223 277 339 274 34 73 77 86 101 119 130 150 162 157 171 178 164 159
161 165 181 180 177 178 176 171 167 167 158 134 182 202 211 202 186 187 196 114 101 103 117 178 181 171 215 254 266 244 181 224 183 168 205 222 226 200 198 234 192 187 196 190 218 218 191 262 275 162 188 240 211 144 58 47 141 129 169 214 209 118 86 100 235 330 24 243 272 283 226 247 255 250 317 110 167 182 183 169 162 181 185 183 193 191 187 183
140 128 250 203 180 183 178 169 166 161 130 148 203 212 193 211 214 177 170 110 72 62 91 179 212 185 181 191 247 242 182 192 190 175 191 227 237 184 171 206 133 197 214 164 190 249 146 264 280 199 179 284 6 80 36 346 85 129 192 205 124 146 273 83 173 226 249 246 280 295 268 241 213 211 190 196 201 192 188 183 185 196 196 196 202 199 197 188
121 89 328 237 193 187 175 167 164 156 151 186 207 214 187 215 240 201 160 111 100 94 110 201 209 193 184 177 199 228 193 193 187 183 191 206 233 196 130 163 112 23 334 134 166 248 92 235 280 323 208 306 27 80 184 266 336 61 173 298 64 167 183 170 175 179 211 238 261 283 287 269 236 203 183 200 199 180 178 185 194 200 196 197 197 192 194 189
119 94 319 252 202 181 164 158 164 178 196 192 194 203 182 201 248 244 206 152 142 149 185 204 195 208 230 204 197 214 216 206 188 186 207 198 233 272 42 86 137 96 26 77 141 159 74 214 255 306 334 94 151 214 191 191 197 122 166 238 260 213 168 247 232 136 155 206 226 255 270 265 257 200 187 203 192 174 179 181 188 201 201 202 199 192 192 189
128 117 293 240 180 162 143 137 219 223 231 209 165 167 174 167 218 249 235 207 202 200 169 186 198 203 212 214 211 199 194 210 190 187 224 217 229 247 23 37 143 160 59 57 119 183 164 185 221 274 312 189 221 243 183 169 160 149 173 200 193 169 136 250 260 200 140 191 191 207 259 271 267 245 217 195 171 172 179 176 182 201 202 200 204 198 192 188
114 119 256 172 160 153 136 146 264 276 277 248 178 167 200 187 178 210 217 204 211 221 193 203 209 202 205 212 205 183 176 204 198 191 220 225 213 209 145 9 359 137 110 128 205 204 131 114 167 247 240 215 233 286 164 165 141 135 169 172 157 148 132 179 235 233 188 234 156 147 248 266 281 298 248 162 162 169 174 175 182 197 201 198 202 200 190 184
100 115 185 159 159 156 140 182 233 239 252 256 229 228 220 207 209 201 191 186 194 197 205 228 207 205 224 211 186 190 188 198 204 200 215 223 205 203 318 345 337 89 97 142 219 221 86 92 152 266 292 302 310 340 358 32 91 117 276 82 133 166 147 167 205 183 158 253 237 168 252 248 320 346 58 129 148 157 167 183 185 189 204 204 200 196 186 180
107 76 41 167 173 172 165 187 197 214 227 228 227 232 233 227 219 200 190 198 190 165 186 228 212 210 225 193 168 200 201 204 225 218 205 198 186 96 9 2 353 138 132 182 198 195 191 143 132 212 304 313 316 331 344 352 43 140 269 321 76 108 103 92 107 100 131 219 198 214 250 252 326 9 50 103 135 160 188 199 187 189 203 207 203 192 183 178
122 73 17 190 194 195 194 192 171 205 220 217 228 234 234 255 239 196 186 198 197 172 184 226 207 189 199 171 168 208 209 212 231 230 169 183 278 344 6 1 13 156 182 222 162 135 180 180 143 160 227 249 253 245 242 269 281 165 224 280 130 129 127 115 144 172 227 227 194 212 247 274 329 14 50 110 160 190 223 228 214 218 212 204 202 188 178 176
138 127 101 174 230 244 234 161 136 210 212 200 228 237 219 230 263 201 185 203 211 189 192 222 171 153 187 179 175 212 225 221 215 200 157 173 255 291 331 358 33 117 92 56 65 72 111 189 195 189 220 238 225 216 211 152 146 220 245 238 235 217 163 151 184 202 207 255 250 241 241 265 278 262 201 198 211 214 232 240 233 234 227 213 204 188 180 182
144 166 160 152 215 241 234 207 191 206 189 183 210 229 211 218 237 238 204 213 203 186 200 227 167 184 204 182 179 218 225 218 211 203 175 162 225 290 319 20 53 35 22 52 63 79 109 230 242 203 232 247 161 179 195 129 163 216 240 257 256 239 167 158 193 210 177 205 251 249 238 233 261 259 205 190 219 233 239 243 236 228 222 209 195 182 181 189
161 128 184 166 171 212 216 213 205 203 201 195 206 249 213 207 205 210 216 215 190 190 202 230 207 204 196 170 180 215 205 201 222 209 179 151 151 292 340 345 346 6 27 38 15 88 125 230 243 166 238 262 129 145 171 158 207 222 232 251 260 256 230 196 214 223 214 227 248 256 252 238 254 264 235 190 207 226 233 236 236 232 208 181 176 178 184 192
142 99 263 311 29 218 219 207 195 204 209 200 216 245 225 199 201 214 195 129 212 219 204 218 224 206 185 172 180 204 201 200 221 217 180 158 164 161 152 283 289 15 56 66 347 76 129 222 212 151 245 272 192 166 178 174 212 244 246 246 248 256 251 230 234 237 228 233 247 257 262 260 258 255 239 216 210 215 228 233 234 231 199 176 176 179 182 189
138 155 186 92 16 288 260 201 179 205 215 204 221 238 225 209 214 219 164 172 209 225 202 214 221 197 184 187 189 210 211 189 195 209 176 160 197 195 183 207 193 75 67 122 251 331 110 171 139 107 317 295 301 129 140 145 179 250 269 263 256 259 257 241 239 242 237 241 247 250 258 265 263 222 200 234 203 165 197 214 213 213 193 175 175 178 182 192
125 55 110 129 197 183 174 186 169 193 214 205 219 226 216 223 216 194 229 225 201 198 202 210 210 194 194 202 202 216 212 172 183 201 173 163 195 194 191 194 162 144 163 179 176 311 153 172 52 77 98 275 284 120 119 4 2 284 274 268 260 255 251 247 236 222 222 232 242 245 247 258 261 229 207 255 180 168 200 206 200 205 189 172 172 180 191 203
142 35 91 115 201 190 173 172 165 191 212 205 215 219 214 222 204 178 224 271 149 192 216 194 187 177 188 209 214 219 199 159 165 169 135 119 110 99 103 143 136 143 163 169 168 161 145 147 136 120 157 259 230 164 193 19 358 285 268 259 254 246 238 244 246 237 225 206 207 226 231 244 257 274 287 264 215 201 209 201 193 193 186 180 177 180 195 209